GPS BIIF-9 (PRN 26)

Last updated on Sun Nov 16 2025 00:04:22 GMT+0000 (Coordinated Universal Time)

1 40534U 15013A 25319.16753073 -.00000013 00000+0 00000+0 0 9991 2 40534 53.2030 213.0319 0105765 37.7631 323.0350 2.00564209 77537
UTC large
Height (km)
Speed (km/s)
/
Latitude / Longitude
Inclination (degrees)
Orbital Period (minutes)
Azimuth
Elevation
Range (km)
Doppler Factor

Next 0 passes for location: London (51.5072 / 0.1276)

Sorry there are no passes over London.